Weather History for Waupaca, WI

Change the Weather History Date:

Sunday, August 25, 2013

  Actual Average Record
Temperature  
Mean Temperature 84 °F -  
Max Temperature 96 °F 78 °F 98 °F (1948)
Min Temperature 71 °F 55 °F 40 °F (1977)
Cooling Degree Days 18    
Growing Degree Days 34 (Base 50)    
Moisture  
Dew Point 66 °F    
Average Humidity 60    
Maximum Humidity 82    
Minimum Humidity 34    
Precipitation  
Precipitation 0.00 in - - ()
Sea Level Pressure  
Sea Level Pressure 30.09 in    
Wind  
Wind Speed 9 mph (SSW)    
Max Wind Speed 18 mph    
Max Gust Speed 26 mph    
Visibility 10 miles    
Events      
Averages and records for this station are not official NWS values.
T = Trace of Precipitation, MM = Missing Value Source: NWS Daily Summary

Daily Weather History Graph

Daily Weather History Graph

Search for Another Location

Airport:

Trip Planner

Search our weather history database for the weather conditions in past years. The results will help you decide how hot, cold, wet, or windy it might be!

Date:

Astronomy

Aug. 25, 2013 Rise Set
Actual Time 6:11 AM CDT 7:44 PM CDT
Civil Twilight 5:40 AM CDT 8:14 PM CDT
Nautical Twilight 5:03 AM CDT 8:51 PM CDT
Astronomical Twilight 4:23 AM CDT 9:30 PM CDT
Moon 10:00 PM CDT (8/25) 11:26 AM CDT (8/25)
Length of Visible Light 14h 33m
Length of Day
13h 33m
Waning Gibbous, 75% of the Moon is Illuminated
Aug 25
Waning Gibbous
Aug 28
Last Quarter
Sep 5
New
Sep 12
First Quarter
Sep 19
Full

Hourly Weather History & Observations

Time (CDT) Temp. Heat Index Dew Point Humidity Pressure Visibility Wind Dir Wind Speed Gust Speed Precip Events Conditions
12:15 AM 72.5 °F - 65.3 °F 78% 30.14 in 10.0 mi South 5.8 mph - N/A   Clear
12:35 AM 72.5 °F - 65.3 °F 78% 30.13 in 10.0 mi South 5.8 mph - N/A   Clear
12:55 AM 72.3 °F - 65.3 °F 78% 30.13 in 10.0 mi South 4.6 mph - N/A   Scattered Clouds
1:15 AM 73.0 °F - 65.7 °F 78% 30.14 in 10.0 mi South 8.1 mph - N/A   Mostly Cloudy
1:35 AM 73.4 °F - 65.7 °F 77% 30.13 in 10.0 mi South 6.9 mph - N/A   Mostly Cloudy
1:55 AM 73.4 °F - 65.7 °F 77% 30.13 in 10.0 mi South 6.9 mph - N/A   Scattered Clouds
2:15 AM 73.4 °F - 65.7 °F 77% 30.13 in 10.0 mi South 5.8 mph - N/A   Scattered Clouds
2:35 AM 73.0 °F - 65.8 °F 78% 30.14 in 10.0 mi South 6.9 mph - N/A   Clear
2:55 AM 73.0 °F - 65.8 °F 78% 30.13 in 10.0 mi South 8.1 mph - N/A   Clear
3:15 AM 73.0 °F - 65.8 °F 78% 30.14 in 10.0 mi South 6.9 mph - N/A   Clear
3:35 AM 73.0 °F - 65.8 °F 78% 30.14 in 10.0 mi South 5.8 mph - N/A   Clear
3:55 AM 73.0 °F - 65.8 °F 78% 30.13 in 10.0 mi South 6.9 mph - N/A   Clear
4:15 AM 72.7 °F - 65.8 °F 79% 30.14 in 10.0 mi South 4.6 mph - N/A   Clear
4:35 AM 72.5 °F - 65.7 °F 79% 30.14 in 10.0 mi South 4.6 mph - N/A   Clear
4:55 AM 72.0 °F - 65.7 °F 80% 30.14 in 10.0 mi South 5.8 mph - N/A   Clear
5:15 AM 71.8 °F - 65.5 °F 80% 30.13 in 10.0 mi South 6.9 mph - N/A   Clear
5:35 AM 71.4 °F - 65.3 °F 81% 30.14 in 10.0 mi SSW 4.6 mph - N/A   Clear
5:55 AM 71.2 °F - 65.3 °F 81% 30.14 in 10.0 mi South 8.1 mph - N/A   Clear
6:15 AM 71.2 °F - 65.3 °F 81% 30.14 in 10.0 mi South 5.8 mph - N/A   Clear
6:35 AM 71.6 °F - 65.7 °F 81% 30.14 in 10.0 mi SSW 5.8 mph - N/A   Clear
6:55 AM 72.1 °F - 66.2 °F 82% 30.15 in 10.0 mi South 4.6 mph - N/A   Clear
7:15 AM 73.8 °F - 66.4 °F 78% 30.16 in 10.0 mi SSW 4.6 mph - N/A   Clear
7:35 AM 75.7 °F - 66.9 °F 74% 30.15 in 10.0 mi South 5.8 mph - N/A   Clear
7:55 AM 76.3 °F - 67.3 °F 74% 30.15 in 10.0 mi SSW 6.9 mph - N/A   Clear
8:15 AM 76.3 °F - 67.3 °F 74% 30.15 in 10.0 mi SSW 6.9 mph - N/A   Clear
8:35 AM 78.1 °F - 67.3 °F 69% 30.15 in 10.0 mi SSW 8.1 mph - N/A   Clear
8:55 AM 78.8 °F - 67.5 °F 68% 30.14 in 10.0 mi SSW 12.7 mph 16.1 mph N/A   Clear
9:15 AM 78.8 °F - 67.6 °F 68% 30.14 in 10.0 mi SSW 5.8 mph - N/A   Clear
9:35 AM 80.1 °F 82.7 °F 68.0 °F 67% 30.14 in 10.0 mi SSW 8.1 mph - N/A   Clear
9:55 AM 81.5 °F 84.4 °F 68.2 °F 64% 30.13 in 10.0 mi SSW 9.2 mph - N/A   Clear
10:15 AM 83.5 °F 86.4 °F 67.8 °F 59% 30.13 in 10.0 mi SW 10.4 mph 16.1 mph N/A   Clear
10:35 AM 84.7 °F 87.9 °F 68.0 °F 57% 30.13 in 10.0 mi SW 8.1 mph - N/A   Clear
10:55 AM 86.9 °F 90.6 °F 68.2 °F 54% 30.12 in 10.0 mi WSW 15.0 mph 20.7 mph N/A   Clear
11:15 AM 88.7 °F 91.9 °F 67.1 °F 49% 30.11 in 10.0 mi WSW 17.3 mph 25.3 mph N/A   Clear
11:35 AM 90.1 °F 93.5 °F 67.5 °F 47% 30.10 in 10.0 mi WSW 17.3 mph 24.2 mph N/A   Clear
11:55 AM 91.4 °F 94.9 °F 67.1 °F 45% 30.10 in 10.0 mi WSW 17.3 mph 23.0 mph N/A   Clear
12:15 PM 91.4 °F 94.5 °F 66.7 °F 44% 30.09 in 10.0 mi SW 18.4 mph 24.2 mph N/A   Clear
12:35 PM 93.0 °F 95.9 °F 66.2 °F 41% 30.09 in 10.0 mi WSW 16.1 mph 21.9 mph N/A   Clear
12:55 PM 93.4 °F 96.1 °F 65.5 °F 40% 30.08 in 10.0 mi WSW 18.4 mph 25.3 mph N/A   Clear
1:15 PM 94.1 °F 96.4 °F 64.9 °F 38% 30.07 in 10.0 mi WSW 16.1 mph 25.3 mph N/A   Clear
1:35 PM 95.5 °F 97.9 °F 64.8 °F 36% 30.06 in 10.0 mi WSW 16.1 mph 20.7 mph N/A   Clear
1:55 PM 95.9 °F 98.5 °F 65.1 °F 36% 30.06 in 10.0 mi SW 15.0 mph 26.5 mph N/A   Clear
2:15 PM 96.3 °F 98.6 °F 64.4 °F 35% 30.05 in 10.0 mi SSW 17.3 mph 23.0 mph N/A   Clear
2:35 PM 95.9 °F 98.0 °F 64.0 °F 35% 30.04 in 10.0 mi SW 18.4 mph 23.0 mph N/A   Clear
2:55 PM 96.1 °F 97.8 °F 63.5 °F 34% 30.04 in 10.0 mi SW 16.1 mph 24.2 mph N/A   Clear
3:15 PM 95.9 °F 97.5 °F 63.5 °F 34% 30.04 in 10.0 mi SW 12.7 mph 20.7 mph N/A   Clear
3:35 PM 95.5 °F 97.9 °F 64.6 °F 36% 30.03 in 10.0 mi SSW 12.7 mph - N/A   Clear
3:55 PM 96.8 °F 99.0 °F 63.9 °F 34% 30.03 in 10.0 mi SSW 15.0 mph 19.6 mph N/A   Clear
4:15 PM 95.9 °F 97.5 °F 63.7 °F 34% 30.03 in 10.0 mi SSW 13.8 mph 20.7 mph N/A   Clear
4:35 PM 95.9 °F 98.0 °F 63.9 °F 35% 30.03 in 10.0 mi SSW 11.5 mph - N/A   Clear
4:55 PM 95.5 °F 98.4 °F 65.1 °F 37% 30.03 in 10.0 mi SSW 16.1 mph 20.7 mph N/A   Clear
5:15 PM 94.1 °F 96.4 °F 64.8 °F 38% 30.03 in 10.0 mi SSW 11.5 mph - N/A   Clear
5:35 PM 93.9 °F 96.1 °F 64.9 °F 38% 30.03 in 10.0 mi SSW 16.1 mph 20.7 mph N/A   Clear
5:55 PM 92.7 °F 94.9 °F 65.1 °F 40% 30.04 in 10.0 mi SSW 11.5 mph 16.1 mph N/A   Clear
6:15 PM 92.3 °F 95.6 °F 66.6 °F 43% 30.03 in 10.0 mi SSW 11.5 mph 16.1 mph N/A   Clear
6:35 PM 90.9 °F 93.5 °F 66.2 °F 44% 30.03 in 10.0 mi SW 10.4 mph - N/A   Clear
6:55 PM 89.8 °F 92.9 °F 66.9 °F 47% 30.04 in 10.0 mi SSW 8.1 mph - N/A   Clear
7:15 PM 87.4 °F 90.5 °F 67.5 °F 51% 30.04 in 10.0 mi SSW 4.6 mph - N/A   Clear
7:35 PM 86.2 °F 89.1 °F 67.3 °F 53% 30.04 in 10.0 mi SSW 9.2 mph - N/A   Clear
7:55 PM 85.1 °F 87.9 °F 67.5 °F 55% 30.05 in 10.0 mi SSW 8.1 mph - N/A   Clear
8:15 PM 85.3 °F 87.9 °F 67.1 °F 54% 30.05 in 10.0 mi SW 9.2 mph - N/A   Clear
8:35 PM 84.4 °F 87.3 °F 67.5 °F 57% 30.05 in 10.0 mi SSW 8.1 mph - N/A   Clear
8:55 PM 83.1 °F 86.1 °F 68.0 °F 60% 30.06 in 10.0 mi SSW 6.9 mph - N/A   Clear
9:15 PM 83.3 °F 86.4 °F 68.2 °F 60% 30.06 in 10.0 mi SW 6.9 mph - N/A   Clear
9:35 PM 82.4 °F 85.4 °F 68.4 °F 62% 30.06 in 10.0 mi SW 8.1 mph - N/A   Clear
9:55 PM 82.4 °F 85.6 °F 68.5 °F 63% 30.06 in 10.0 mi SW 9.2 mph - N/A   Clear
10:15 PM 81.7 °F 84.7 °F 68.5 °F 64% 30.06 in 10.0 mi SW 8.1 mph - N/A   Clear
10:35 PM 81.5 °F 84.8 °F 69.1 °F 66% 30.07 in 10.0 mi SW 6.9 mph - N/A   Clear
10:55 PM 80.6 °F 83.2 °F 68.0 °F 65% 30.06 in 10.0 mi SW 8.1 mph - N/A   Clear
11:15 PM 80.4 °F 82.7 °F 66.9 °F 63% 30.06 in 10.0 mi SW 8.1 mph - N/A   Clear
11:35 PM 79.7 °F - 66.4 °F 64% 30.05 in 10.0 mi SSW 8.1 mph - N/A   Clear
11:55 PM 79.2 °F - 66.4 °F 65% 30.03 in 10.0 mi SSW 9.2 mph - N/A   Clear